Regional Weather Roundup
Issued by NWS

Home | Current Version | Previous Version | Text Only | Print | Product List | Glossary Off
Versions: 1 2 3 4 5 6 7 8 9 10 11 12 13 14 15 16 17 18 19 20 21 22 23 24 25 26 27 28 29 30 31 32 33 34 35 36 37 38 39 40 41 42 43 44 45 46 47 48 49 50

365
ASUS45 KBOU 282207
RWRCO

WEATHER ROUNDUP FOR COLORADO
NATIONAL WEATHER SERVICE DENVER/BOULDER CO
300 PM MST TUE FEB 28 2017

NOTE: "FAIR" INDICATES FEW OR NO CLOUDS BELOW 12000 FEET WITH NO
SIGNIFICANT WEATHER AND/OR OBSTRUCTIONS TO VISIBILITY.

COZ001>005-013-030-031-282300-
...NORTHWEST COLORADO...

CITY           SKY/WX    TMP DP  RH WIND       PRES   REMARKS
CRAIG          CLOUDY    24  10  55 W10       29.89R WCI  14
HAYDEN         FAIR      23   7  50 W9        29.87R WCI  13
MEEKER         CLOUDY    28  16  60 W9        29.87R WCI  19
MOUNT WERNER   NOT AVBL
STEAMBOAT SPGS CLOUDY    21  10  60 W14G24    29.85R WCI   8
WALDEN         NOT AVBL
$$

COZ006>008-011-282300-
...WEST CENTRAL VALLEYS...

CITY           SKY/WX    TMP DP  RH WIND       PRES   REMARKS
GRAND JUNCTION FAIR      35  28  75 NW12      29.89R WCI  27
MONTROSE       LGT SNOW  31  25  78 CALM      29.87R
EAGLE          CLOUDY    30  16  55 W13       29.80R WCI  20
RIFLE          CLOUDY    33  16  49 NW14G25   29.85R WCI  23
DELTA          FAIR      43  19  38 W22G31    29.84R
NUCLA          FAIR      41  21  45 W18G29    29.89R
$$

COZ017>023-064>068-282300-
...SOUTHWEST COLORADO...

CITY           SKY/WX    TMP DP  RH WIND       PRES   REMARKS
DURANGO        LGT SNOW  32  27  81 W24       29.82R WCI  19
CORTEZ         CLOUDY    34  29  82 SE7       29.88S WCI  28
PAGOSA SPRINGS CLOUDY    32  25  73 SW10G28   29.79R WCI  24
TELLURIDE      LGT SNOW  23  18  83 NW13G20   29.83R VSB 3/4 WCI  11
WOLF CREEK PAS CLOUDY    14  12  92 MISG      29.70S
$$

COZ009-010-012-014-032>034-037-058>063-282300-
...CENTRAL COLORADO...

CITY           SKY/WX    TMP DP  RH WIND       PRES   REMARKS
ASPEN          FLURRIES  22  17  81 N13       29.75R WCI  10
BUENA VISTA    CLOUDY    32  15  50 W21G28    29.67R WCI  20
COPPER MTN     CLOUDY    14   9  79 MISG      29.62R
BERTHOUD PASS  LGT SNOW   5  -4  66 W16G44    29.60R VSB 1   WCI -14
COTTONWOOD PAS LGT SNOW  27  18  69 NW7       29.65R WCI  19
GUNNISON       FAIR      28  17  63 SW14      29.76R WCI  17
KREMMLING      CLOUDY    27  10  50 N12G25    29.79R WCI  16
LEADVILLE      LGT SNOW  17  10  74 NW10G20   29.68R WCI   5
MONARCH PASS     N/A     12   9  85 MISG      29.73R
SALIDA         PTSUNNY   38  18  44 W15G22    29.75R
SUNLIGHT       NOT AVBL
WILKERSON PASS CLOUDY    21  10  63 SW10G20   29.66R WCI  10
$$

COZ069>075-282300-
...SAN LUIS VALLEY/SANGRE DE CRISTO MOUNTAINS...

CITY           SKY/WX    TMP DP  RH WIND       PRES   REMARKS
ALAMOSA        FAIR      40  16  37 SW26G37   29.67F
LA VETA PASS   CLOUDY    23  18  80 S29G41    29.65S WCI   6
SAGUACHE       CLOUDY    32  19  59 NW18G25   29.68R WCI  20
$$

COZ035-036-038>040-282300-
...NORTHERN COLORADO FRONT RANGE...

CITY           SKY/WX    TMP DP  RH WIND       PRES   REMARKS
DENVER INTL AP FLURRIES  30  26  85 E14       29.71R WCI  19
DMNS CITY PARK   N/A     33  25  70 E8G17     29.70R WCI  26
AURORA         FLURRIES  32  25  76 E13       29.70R WCI  22
FRONT RANGE AP LGT SNOW  30  28  93 E13       29.72R WCI  20
ERIE MUNI ARPT FAIR      39  24  53 E13       29.70R
BOULDER MUN AP PTSUNNY   41  23  48 E7        29.68R
CENTENNIAL     LGT SNOW  30  27  88 E7        29.69R FOG     WCI  23
BROOMFIELD     NOT AVBL
FORT COLLINS   PTSUNNY   36  22  56 E15       29.73R
LONGMONT       NOT AVBL
$$

COZ041-046-047-076>085-087-088-282300-
...PIKES PEAK/PALMER DIVIDE AND SOUTHERN FOOTHILLS...

CITY           SKY/WX    TMP DP  RH WIND       PRES   REMARKS
COLO. SPRINGS  PTSUNNY   38  18  44 CALM      29.67R
A. F. ACADEMY  SNOW      29  24  81 CALM      29.67R VSB 1/2
SCHRIEVER AFB  FAIR      35  17  46 S5G17     29.67R WCI  31
ELLICOTT       FAIR     N/A N/A N/A S10       29.65R
FALCON         PTSUNNY   34  16  48 W7        29.69R WCI  28
FORT CARSON    MOSUNNY   37  25  62 S14G21    29.64R
LIMON          PTSUNNY   34  18  52 NE13      29.70R WCI  25
MONUMENT HILL  SNOW      28  27  93 SW5       29.68R VSB 1/4 WCI  23
TRINIDAD       CLOUDY    51  18  27 NE9       29.67R
$$

COZ042>045-048>051-090-091-282300-
...NORTHEAST COLORADO...

CITY           SKY/WX    TMP DP  RH WIND       PRES   REMARKS
GREELEY ARPT   CLOUDY    36  24  62 E9        29.75R
AKRON          LGT SNOW  26  22  84 N14       29.75R FOG     WCI  14
BURLINGTON     CLOUDY    42  13  30 NE17      29.70S
WRAY           NOT AVBL
STERLING       CLOUDY    30  27  86 CALM      29.76R
HOLYOKE        FAIR      36  19  51 NW12G24   29.77R
FORT MORGAN    CLOUDY    30  25  81 E5        29.76R WCI  25
$$

COZ086-089-092>099-282300-
...SOUTHEAST COLORADO...

CITY           SKY/WX    TMP DP  RH WIND       PRES   REMARKS
PUEBLO         PTSUNNY   43  23  45 W9        29.65S
LA JUNTA       FAIR      52  11  19 E12       29.64F
LAMAR          FAIR      52  13  21 NE13      29.64S
SPRINGFIELD      N/A     53  24  32 N13       29.61R
$$




USA.gov is the U.S. government's official web portal to all federal, state and local government web resources and services.